SPACEBEE-30 (46946 NORAD) Tracking and Keplerian Element Data
This shows tracking and keplerian element data for the satellite.
Feedback or suggestion? Click here.
Element | Value |
Catalog | 46946 |
Name | SPACEBEE-30 |
Epoch Orbit | 896 |
Epoch Day | 18.08571883 |
Epoch Year | 2021 |
RAAN | 157.4387 |
Inclination | 97.3736 |
Eccentricity | 0.0016415 |
Argument of Perigee | 103.3594 |
Mean Anonmoly | 256.9452 |
Mean Motion | 15.20961404 |
Decay Rate | 3.527E-05 |
L1 | 1 46946U 20085T 21018.08571883 .00003527 00000-0 16179-3 0 9990 |
L2 | 2 46946 97.3736 157.4387 0016415 103.3594 256.9452 15.20961404 8961 |
Live tracking and technical data element details for SPACEBEE-30 (NORAD 46946). SPACEBEE-30 can be tracked NOW for your location showing map with azimuth and elevation plus other details from your city location.
Track the satellite on the map from your city or location and see movement details for azimuth, elevation, latitude, longitude, range, height, and movement on the map or in text.
IsCatalogInMostPopularTable: catalog: 46946, numindb: 16
Update: records affected: 1
GetName: 46946 SPACEBEE-30
Hit Count: updated at: Tue, 19 Jan 2021 03:19:55 GMT